,,,PA_Meas_PMT16A,,PR_Meas_QMR101_102,,RH_Meas_QMH101,,SR_Meas_QMS101,,TA_Meas_QMH101,,GenWind,,GenWind,
date,time,status,PA,status,PR,status,RH,status,SR,status,TA,status,DirAvg,status,SpdAvg,
2010-01-30, 00:00:04,VALID,1005.45,VALID,0,VALID,94.087,VALID,0,VALID,23.7425,VALID,9,VALID,0,
2010-01-30, 00:01:04,VALID,1005.43,VALID,0,VALID,93.9725,VALID,0,VALID,23.7212,VALID,9,VALID,0.1875,
2010-01-30, 00:02:04,VALID,1005.4,VALID,0,VALID,93.9344,VALID,0,VALID,23.7212,VALID,9,VALID,0.246875,
2010-01-30, 00:03:04,VALID,1005.42,VALID,0,VALID,93.9268,VALID,0,VALID,23.7601,VALID,9,VALID,0.0121094,
2010-01-30, 00:04:04,VALID,1005.4,VALID,0,VALID,93.9039,VALID,0,VALID,23.7796,VALID,9,VALID,0,
2010-01-30, 00:05:04,VALID,1005.4,VALID,0,VALID,93.8581,VALID,0,VALID,23.7991,VALID,9,VALID,0,
2010-01-30, 00:06:04,VALID,1005.36,VALID,0,VALID,93.7971,VALID,0,VALID,23.7973,VALID,9,VALID,0,
2010-01-30, 00:07:04,VALID,1005.37,VALID,0,VALID,93.7284,VALID,0,VALID,23.838,VALID,9,VALID,0,
2010-01-30, 00:08:04,VALID,1005.39,VALID,0,VALID,93.6598,VALID,0,VALID,23.7973,VALID,9,VALID,0,
2010-01-30, 00:09:04,VALID,1005.34,VALID,0,VALID,93.5682,VALID,0,VALID,23.8398,VALID,9,VALID,0,
2010-01-30, 00:10:04,VALID,1005.31,VALID,0,VALID,93.5148,VALID,0,VALID,23.838,VALID,9,VALID,0,
2010-01-30, 00:11:04,VALID,1005.27,VALID,0,VALID,93.4614,VALID,0.100563,VALID,23.8185,VALID,9,VALID,0,
2010-01-30, 00:12:04,VALID,1005.26,VALID,0,VALID,93.4004,VALID,0,VALID,23.7991,VALID,9,VALID,0,
2010-01-30, 00:13:04,VALID,1005.26,VALID,0,VALID,93.3775,VALID,0,VALID,23.7796,VALID,9,VALID,0.242188,
2010-01-30, 00:14:04,VALID,1005.27,VALID,0,VALID,93.4309,VALID,0,VALID,23.7796,VALID,9,VALID,0.477734,
2010-01-30, 00:15:04,VALID,1005.29,VALID,0,VALID,93.4614,VALID,0,VALID,23.7796,VALID,9,VALID,0.439063,
2010-01-30, 00:16:04,VALID,1005.27,VALID,0,VALID,93.3928,VALID,0,VALID,23.7,VALID,9,VALID,0.578516,
2010-01-30, 00:17:04,VALID,1005.27,VALID,0,VALID,93.4767,VALID,0,VALID,23.7407,VALID,355,VALID,0.537891,
2010-01-30, 00:18:04,VALID,1005.28,VALID,0,VALID,93.6598,VALID,0,VALID,23.7814,VALID,346,VALID,0.108594,
2010-01-30, 00:19:04,VALID,1005.3,VALID,0,VALID,93.7513,VALID,0,VALID,23.8185,VALID,345,VALID,0.484375,
2010-01-30, 00:20:04,VALID,1005.29,VALID,0,VALID,93.7971,VALID,0,VALID,23.8593,VALID,345,VALID,0.364844,
2010-01-30, 00:21:04,VALID,1005.29,VALID,0,VALID,93.7971,VALID,0,VALID,23.8167,VALID,345,VALID,0.232422,
2010-01-30, 00:22:04,VALID,1005.27,VALID,0,VALID,93.7513,VALID,0,VALID,23.8593,VALID,345,VALID,0.137891,
2010-01-30, 00:23:04,VALID,1005.26,VALID,0,VALID,93.7132,VALID,0,VALID,23.8575,VALID,345,VALID,0,
2010-01-30, 00:24:04,VALID,1005.27,VALID,0,VALID,93.6826,VALID,0,VALID,23.838,VALID,345,VALID,0,
2010-01-30, 00:25:04,VALID,1005.26,VALID,0,VALID,93.6979,VALID,0,VALID,23.838,VALID,345,VALID,0,
2010-01-30, 00:26:04,VALID,1005.25,VALID,0,VALID,93.7208,VALID,0,VALID,23.8769,VALID,345,VALID,0,
2010-01-30, 00:27:04,VALID,1005.26,VALID,0,VALID,93.7666,VALID,0,VALID,23.8964,VALID,345,VALID,0,
2010-01-30, 00:28:04,VALID,1005.26,VALID,0,VALID,93.7818,VALID,0,VALID,23.9177,VALID,345,VALID,0,
2010-01-30, 00:29:04,VALID,1005.26,VALID,0,VALID,93.7971,VALID,0,VALID,23.8964,VALID,345,VALID,0,
2010-01-30, 00:30:04,VALID,1005.26,VALID,0,VALID,93.8123,VALID,0,VALID,23.9159,VALID,308,VALID,0.328906,
2010-01-30, 00:31:04,VALID,1005.26,VALID,0,VALID,93.8047,VALID,0,VALID,23.9353,VALID,308,VALID,0,
2010-01-30, 00:32:04,VALID,1005.26,VALID,0,VALID,93.7895,VALID,0,VALID,23.9548,VALID,308,VALID,0.00585938,
2010-01-30, 00:33:04,VALID,1005.25,VALID,0,VALID,93.7589,VALID,0,VALID,23.9742,VALID,308,VALID,0.00273437,
2010-01-30, 00:34:04,VALID,1005.26,VALID,0,VALID,93.7437,VALID,0,VALID,23.9742,VALID,308,VALID,0.204297,
2010-01-30, 00:35:04,VALID,1005.25,VALID,0,VALID,93.675,VALID,0,VALID,24.015,VALID,339,VALID,0.225781,
2010-01-30, 00:36:05,VALID,1005.26,VALID,0,VALID,93.5758,VALID,0,VALID,24.0539,VALID,339,VALID,0.128125,
2010-01-30, 00:37:04,VALID,1005.25,VALID,0,VALID,93.4843,VALID,0,VALID,24.0929,VALID,338,VALID,0,
2010-01-30, 00:38:05,VALID,1005.24,VALID,0,VALID,93.3622,VALID,0.100563,VALID,24.091,VALID,338,VALID,0.122266,
2010-01-30, 00:39:05,VALID,1005.2,VALID,0,VALID,93.2249,VALID,0,VALID,24.1318,VALID,338,VALID,0.520312,
2010-01-30, 00:40:05,VALID,1005.2,VALID,0,VALID,93.1029,VALID,0,VALID,24.1494,VALID,346,VALID,0.710938,
2010-01-30, 00:41:05,VALID,1005.18,VALID,0,VALID,92.9198,VALID,0,VALID,24.1494,VALID,356,VALID,0.657031,
2010-01-30, 00:42:05,VALID,1005.2,VALID,0,VALID,92.729,VALID,0,VALID,24.1494,VALID,352,VALID,0.70625,
2010-01-30, 00:43:05,VALID,1005.13,VALID,0,VALID,92.4849,VALID,0,VALID,24.1689,VALID,352,VALID,0.666406,
2010-01-30, 00:44:05,VALID,1005.13,VALID,0,VALID,92.3781,VALID,0,VALID,24.1494,VALID,356,VALID,0.650391,
2010-01-30, 00:45:05,VALID,1005.1,VALID,0,VALID,92.3476,VALID,0,VALID,24.0892,VALID,356,VALID,0.607031,
2010-01-30, 00:46:05,VALID,1005.09,VALID,0,VALID,92.3552,VALID,0,VALID,24.0716,VALID,356,VALID,0.478125,
2010-01-30, 00:47:05,VALID,1005.07,VALID,0,VALID,92.4544,VALID,0,VALID,24.0521,VALID,356,VALID,0.469141,
2010-01-30, 00:48:05,VALID,1005.02,VALID,0,VALID,92.5078,VALID,0,VALID,24.0132,VALID,356,VALID,0.267188,
2010-01-30, 00:49:05,VALID,1005.01,VALID,0,VALID,92.6222,VALID,0,VALID,23.9742,VALID,352,VALID,0.397266,
2010-01-30, 00:50:05,VALID,1004.94,VALID,0,VALID,92.7596,VALID,0,VALID,23.9742,VALID,352,VALID,0.378516,
2010-01-30, 00:51:05,VALID,1004.91,VALID,0,VALID,92.8435,VALID,0,VALID,23.9566,VALID,352,VALID,0.364453,
2010-01-30, 00:52:05,VALID,1004.89,VALID,0,VALID,92.9426,VALID,0,VALID,23.9159,VALID,352,VALID,0.227734,
2010-01-30, 00:53:05,VALID,1004.85,VALID,0,VALID,93.0113,VALID,0,VALID,23.9159,VALID,352,VALID,0.183984,
2010-01-30, 00:54:05,VALID,1004.82,VALID,0,VALID,93.08,VALID,0,VALID,23.8964,VALID,352,VALID,0.315234,
2010-01-30, 00:55:05,VALID,1004.78,VALID,0,VALID,93.1029,VALID,0,VALID,23.8575,VALID,352,VALID,0.191016,
2010-01-30, 00:56:05,VALID,1004.79,VALID,0,VALID,93.1639,VALID,0,VALID,23.838,VALID,352,VALID,0,
2010-01-30, 00:57:05,VALID,1004.77,VALID,0,VALID,93.2249,VALID,0,VALID,23.8185,VALID,352,VALID,0,
2010-01-30, 00:58:05,VALID,1004.74,VALID,0,VALID,93.2631,VALID,0,VALID,23.8203,VALID,352,VALID,0,
2010-01-30, 00:59:05,VALID,1004.72,VALID,0,VALID,93.3622,VALID,0,VALID,23.7583,VALID,352,VALID,0,
2010-01-30, 01:00:05,VALID,1004.69,VALID,0,VALID,93.4233,VALID,0,VALID,23.7583,VALID,352,VALID,0,
2010-01-30, 01:01:05,VALID,1004.66,VALID,0,VALID,93.5453,VALID,0,VALID,23.7796,VALID,352,VALID,0.0390625,
2010-01-30, 01:02:05,VALID,1004.66,VALID,0,VALID,93.6292,VALID,0,VALID,23.8009,VALID,352,VALID,0.341016,
2010-01-30, 01:03:05,VALID,1004.63,VALID,0,VALID,93.6826,VALID,0,VALID,23.7778,VALID,352,VALID,0.353906,
2010-01-30, 01:04:05,VALID,1004.57,VALID,0,VALID,93.7513,VALID,0,VALID,23.7973,VALID,352,VALID,0.2375,
2010-01-30, 01:05:05,VALID,1004.57,VALID,0,VALID,93.7208,VALID,0,VALID,23.8185,VALID,352,VALID,0.214844,
2010-01-30, 01:06:05,VALID,1004.54,VALID,0,VALID,93.7208,VALID,0,VALID,23.838,VALID,352,VALID,0.0949219,
2010-01-30, 01:07:05,VALID,1004.52,VALID,0,VALID,93.7208,VALID,0,VALID,23.838,VALID,352,VALID,0.341016,
2010-01-30, 01:08:05,VALID,1004.5,VALID,0,VALID,93.7284,VALID,0,VALID,23.8575,VALID,352,VALID,0.336719,
2010-01-30, 01:09:05,VALID,1004.5,VALID,0,VALID,93.6826,VALID,0,VALID,23.838,VALID,322,VALID,0.426953,
2010-01-30, 01:10:05,VALID,1004.49,VALID,0,VALID,93.7055,VALID,0,VALID,23.8575,VALID,268,VALID,0.360156,
2010-01-30, 01:11:05,VALID,1004.46,VALID,0,VALID,93.7742,VALID,0,VALID,23.9159,VALID,343,VALID,0.958203,
2010-01-30, 01:12:05,VALID,1004.43,VALID,0,VALID,93.7284,VALID,0,VALID,23.9353,VALID,343,VALID,0.520703,
2010-01-30, 01:13:05,VALID,1004.39,VALID,0,VALID,93.6521,VALID,0,VALID,23.9742,VALID,4,VALID,0.963672,
2010-01-30, 01:14:05,VALID,1004.38,VALID,0,VALID,93.5453,VALID,0,VALID,24.0539,VALID,346,VALID,0.71875,
2010-01-30, 01:15:05,VALID,1004.37,VALID,0,VALID,93.3851,VALID,0,VALID,24.0734,VALID,350,VALID,0.634375,
2010-01-30, 01:16:05,VALID,1004.37,VALID,0,VALID,93.1715,VALID,0,VALID,24.13,VALID,344,VALID,0.576172,
2010-01-30, 01:17:05,VALID,1004.31,VALID,0,VALID,92.9503,VALID,0,VALID,24.1494,VALID,352,VALID,0.992578,
2010-01-30, 01:18:05,VALID,1004.32,VALID,0,VALID,92.7748,VALID,0,VALID,24.1689,VALID,335,VALID,0.487109,
2010-01-30, 01:19:05,VALID,1004.23,VALID,0,VALID,92.5383,VALID,0,VALID,24.2486,VALID,357,VALID,0.816797,
2010-01-30, 01:20:05,VALID,1004.19,VALID,0,VALID,92.3247,VALID,0,VALID,24.2681,VALID,354,VALID,0.602344,
2010-01-30, 01:21:05,VALID,1004.17,VALID,0,VALID,92.1111,VALID,0,VALID,24.2681,VALID,349,VALID,0.660547,
2010-01-30, 01:22:05,VALID,1004.15,VALID,0,VALID,92.0119,VALID,0,VALID,24.2662,VALID,351,VALID,0.752344,
2010-01-30, 01:23:05,VALID,1004.12,VALID,0,VALID,91.9509,VALID,0,VALID,24.3265,VALID,351,VALID,0.624219,
2010-01-30, 01:24:05,VALID,1004.11,VALID,0,VALID,91.7144,VALID,0,VALID,24.3459,VALID,341,VALID,0.620313,
2010-01-30, 01:25:05,VALID,1004.08,VALID,0,VALID,91.5161,VALID,0,VALID,24.3441,VALID,352,VALID,0.65,
2010-01-30, 01:26:05,VALID,1004.06,VALID,0,VALID,91.4016,VALID,0,VALID,24.3246,VALID,352,VALID,0.489062,
2010-01-30, 01:27:05,VALID,1004.04,VALID,0,VALID,91.4398,VALID,0,VALID,24.3246,VALID,345,VALID,0.614062,
2010-01-30, 01:28:05,VALID,1004.03,VALID,0,VALID,91.5161,VALID,0,VALID,24.3052,VALID,353,VALID,0.91875,
2010-01-30, 01:29:05,VALID,1003.99,VALID,0,VALID,91.5923,VALID,0,VALID,24.307,VALID,355,VALID,0.491016,
2010-01-30, 01:30:05,VALID,1003.97,VALID,0,VALID,91.6991,VALID,0,VALID,24.3052,VALID,345,VALID,0.544922,
2010-01-30, 01:31:05,VALID,1003.96,VALID,0,VALID,91.5771,VALID,0,VALID,24.307,VALID,360,VALID,0.448828,
2010-01-30, 01:32:05,VALID,1003.97,VALID,0,VALID,91.6152,VALID,0,VALID,24.2857,VALID,349,VALID,0.602344,
2010-01-30, 01:33:05,VALID,1003.95,VALID,0,VALID,91.7144,VALID,0,VALID,24.2857,VALID,359,VALID,0.737891,
2010-01-30, 01:34:05,VALID,1003.96,VALID,0,VALID,91.7831,VALID,0,VALID,24.3052,VALID,8,VALID,0.777344,
2010-01-30, 01:35:05,VALID,1003.94,VALID,0,VALID,91.6915,VALID,0,VALID,24.3441,VALID,329,VALID,0.612109,
2010-01-30, 01:36:05,VALID,1003.95,VALID,0,VALID,91.6152,VALID,0,VALID,24.383,VALID,348,VALID,0.851953,
2010-01-30, 01:37:05,VALID,1003.98,VALID,0,VALID,91.5084,VALID,0,VALID,24.383,VALID,354,VALID,0.901563,
2010-01-30, 01:38:05,VALID,1003.95,VALID,0,VALID,91.3787,VALID,0,VALID,24.4238,VALID,349,VALID,1.19961,
2010-01-30, 01:39:05,VALID,1003.98,VALID,0,VALID,91.2338,VALID,0,VALID,24.4025,VALID,349,VALID,0.548437,
2010-01-30, 01:40:05,VALID,1003.99,VALID,0,VALID,91.127,VALID,0,VALID,24.4433,VALID,334,VALID,0.406641,
2010-01-30, 01:41:05,VALID,1003.98,VALID,0,VALID,91.0354,VALID,0,VALID,24.422,VALID,271,VALID,0.467578,
2010-01-30, 01:42:05,VALID,1003.99,VALID,0,VALID,90.9286,VALID,0,VALID,24.422,VALID,354,VALID,0.608984,
2010-01-30, 01:43:05,VALID,1003.95,VALID,0,VALID,90.9057,VALID,0,VALID,24.4414,VALID,355,VALID,0.939844,
2010-01-30, 01:44:05,VALID,1003.98,VALID,0,VALID,90.8829,VALID,0,VALID,24.422,VALID,346,VALID,0.670703,
2010-01-30, 01:45:05,VALID,1003.98,VALID,0,VALID,90.9057,VALID,0,VALID,24.4238,VALID,343,VALID,0.801953,
2010-01-30, 01:46:05,VALID,1003.98,VALID,0,VALID,90.9363,VALID,0,VALID,24.4238,VALID,340,VALID,0.482031,
2010-01-30, 01:47:05,VALID,1003.99,VALID,0,VALID,90.921,VALID,0,VALID,24.4043,VALID,353,VALID,0.507813,
2010-01-30, 01:48:05,VALID,1003.94,VALID,0,VALID,90.8981,VALID,0,VALID,24.3636,VALID,354,VALID,0.806641,
2010-01-30, 01:49:05,VALID,1003.94,VALID,0,VALID,90.982,VALID,0,VALID,24.4043,VALID,344,VALID,0.877344,
2010-01-30, 01:50:05,VALID,1003.94,VALID,0,VALID,90.9286,VALID,0,VALID,24.4043,VALID,338,VALID,0.662891,
2010-01-30, 01:51:05,VALID,1003.93,VALID,0,VALID,90.9057,VALID,0,VALID,24.4043,VALID,15,VALID,0.423438,
2010-01-30, 01:52:05,VALID,1003.9,VALID,0,VALID,90.921,VALID,0,VALID,24.3849,VALID,352,VALID,1.14766,
2010-01-30, 01:53:05,VALID,1003.91,VALID,0,VALID,90.9668,VALID,0,VALID,24.4062,VALID,348,VALID,0.805859,
2010-01-30, 01:54:05,VALID,1003.91,VALID,0,VALID,90.921,VALID,0,VALID,24.3849,VALID,328,VALID,0.779297,
2010-01-30, 01:55:05,VALID,1003.88,VALID,0,VALID,90.9744,VALID,0,VALID,24.3849,VALID,346,VALID,0.948438,
2010-01-30, 01:56:05,VALID,1003.84,VALID,0,VALID,91.0049,VALID,0,VALID,24.3849,VALID,328,VALID,1.33047,
2010-01-30, 01:57:05,VALID,1003.84,VALID,0,VALID,90.9134,VALID,0,VALID,24.4238,VALID,304,VALID,1.06484,
2010-01-30, 01:58:05,VALID,1003.82,VALID,0,VALID,90.7837,VALID,0,VALID,24.4433,VALID,360,VALID,0.244141,
2010-01-30, 01:59:05,VALID,1003.83,VALID,0,VALID,90.7455,VALID,0,VALID,24.4609,VALID,349,VALID,1.47617,
2010-01-30, 02:00:05,VALID,1003.79,VALID,0,VALID,90.6235,VALID,0,VALID,24.459,VALID,351,VALID,0.769141,
2010-01-30, 02:01:05,VALID,1003.76,VALID,0,VALID,90.5472,VALID,0,VALID,24.4998,VALID,315,VALID,0.646094,
2010-01-30, 02:02:05,VALID,1003.76,VALID,0,VALID,90.4633,VALID,0,VALID,24.5212,VALID,348,VALID,0.574219,
2010-01-30, 02:03:05,VALID,1003.74,VALID,0,VALID,90.5548,VALID,0,VALID,24.4998,VALID,343,VALID,0.802734,
2010-01-30, 02:04:05,VALID,1003.72,VALID,0,VALID,90.5014,VALID,0,VALID,24.5212,VALID,330,VALID,0.328516,
2010-01-30, 02:05:05,VALID,1003.73,VALID,0,VALID,90.4251,VALID,0,VALID,24.5193,VALID,339,VALID,0.633594,
2010-01-30, 02:06:05,VALID,1003.71,VALID,0,VALID,90.448,VALID,0,VALID,24.5406,VALID,352,VALID,0.610937,
2010-01-30, 02:07:05,VALID,1003.66,VALID,0,VALID,90.4022,VALID,0,VALID,24.5212,VALID,355,VALID,0.516797,
2010-01-30, 02:08:05,VALID,1003.63,VALID,0,VALID,90.4175,VALID,0,VALID,24.5017,VALID,355,VALID,0,
2010-01-30, 02:09:05,VALID,1003.59,VALID,0,VALID,90.5167,VALID,0,VALID,24.4822,VALID,354,VALID,0.0183594,
2010-01-30, 02:10:05,VALID,1003.58,VALID,0,VALID,90.654,VALID,0,VALID,24.4822,VALID,354,VALID,0.0675781,
2010-01-30, 02:11:05,VALID,1003.56,VALID,0,VALID,90.7455,VALID,0,VALID,24.4628,VALID,354,VALID,0.247656,
2010-01-30, 02:12:05,VALID,1003.58,VALID,0,VALID,90.7989,VALID,0,VALID,24.4433,VALID,354,VALID,0.269531,
2010-01-30, 02:13:05,VALID,1003.58,VALID,0,VALID,90.8371,VALID,0,VALID,24.4451,VALID,354,VALID,0.21875,
2010-01-30, 02:14:05,VALID,1003.57,VALID,0,VALID,90.8447,VALID,0,VALID,24.4451,VALID,348,VALID,0.413281,
2010-01-30, 02:15:05,VALID,1003.54,VALID,0,VALID,91.0736,VALID,0,VALID,24.4043,VALID,351,VALID,0.321875,
2010-01-30, 02:16:05,VALID,1003.56,VALID,0,VALID,91.0431,VALID,0,VALID,24.4043,VALID,350,VALID,0.00351562,
2010-01-30, 02:17:05,VALID,1003.54,VALID,0,VALID,91.1346,VALID,0,VALID,24.3636,VALID,350,VALID,0.367188,
2010-01-30, 02:18:05,VALID,1003.53,VALID,0,VALID,91.2948,VALID,0,VALID,24.3849,VALID,350,VALID,0.258594,
2010-01-30, 02:19:05,VALID,1003.53,VALID,0,VALID,91.394,VALID,0,VALID,24.3849,VALID,347,VALID,0.227734,
2010-01-30, 02:20:05,VALID,1003.54,VALID,0,VALID,91.2948,VALID,0,VALID,24.3654,VALID,347,VALID,0,
2010-01-30, 02:21:05,VALID,1003.51,VALID,0,VALID,91.3024,VALID,0,VALID,24.3441,VALID,347,VALID,0,
2010-01-30, 02:22:05,VALID,1003.52,VALID,0,VALID,91.3787,VALID,0,VALID,24.3246,VALID,347,VALID,0.120703,
2010-01-30, 02:23:05,VALID,1003.51,VALID,0,VALID,91.3635,VALID,0,VALID,24.3283,VALID,347,VALID,0.0617188,
2010-01-30, 02:24:05,VALID,1003.49,VALID,0,VALID,91.4855,VALID,0,VALID,24.2875,VALID,347,VALID,0,
2010-01-30, 02:25:05,VALID,1003.47,VALID,0,VALID,91.6076,VALID,0,VALID,24.2681,VALID,347,VALID,0,
2010-01-30, 02:26:05,VALID,1003.46,VALID,0,VALID,91.6686,VALID,0,VALID,24.2273,VALID,347,VALID,0,
2010-01-30, 02:27:05,VALID,1003.46,VALID,0,VALID,91.7449,VALID,0,VALID,24.2273,VALID,347,VALID,0.173828,
2010-01-30, 02:28:05,VALID,1003.47,VALID,0,VALID,91.8212,VALID,0,VALID,24.2078,VALID,347,VALID,0.222266,
2010-01-30, 02:29:05,VALID,1003.48,VALID,0,VALID,91.8441,VALID,0,VALID,24.2078,VALID,321,VALID,0.558984,
2010-01-30, 02:30:05,VALID,1003.5,VALID,0,VALID,91.8746,VALID,0,VALID,24.2097,VALID,295,VALID,0.117578,
2010-01-30, 02:31:05,VALID,1003.47,VALID,0,VALID,91.7983,VALID,0,VALID,24.1707,VALID,296,VALID,0.258594,
2010-01-30, 02:32:05,VALID,1003.52,VALID,0,VALID,91.5847,VALID,0,VALID,24.1123,VALID,322,VALID,0.61875,
2010-01-30, 02:33:05,VALID,1003.51,VALID,0,VALID,91.3406,VALID,0,VALID,23.9955,VALID,344,VALID,0.624609,
2010-01-30, 02:34:05,VALID,1003.54,VALID,0,VALID,91.4626,VALID,0,VALID,23.8787,VALID,357,VALID,0.767578,
2010-01-30, 02:35:05,VALID,1003.56,VALID,0,VALID,91.8136,VALID,0,VALID,23.7796,VALID,357,VALID,0.476563,
2010-01-30, 02:36:05,VALID,1003.55,VALID,0,VALID,92.1187,VALID,0,VALID,23.7212,VALID,357,VALID,0.507813,
2010-01-30, 02:37:05,VALID,1003.56,VALID,0,VALID,92.3018,VALID,0,VALID,23.6434,VALID,357,VALID,0.587891,
2010-01-30, 02:38:05,VALID,1003.56,VALID,0,VALID,92.5917,VALID,0,VALID,23.6257,VALID,357,VALID,0.557031,
2010-01-30, 02:39:05,VALID,1003.53,VALID,0,VALID,92.8664,VALID,0,VALID,23.6062,VALID,357,VALID,0.462109,
2010-01-30, 02:40:05,VALID,1003.54,VALID,0,VALID,93.2402,VALID,0,VALID,23.585,VALID,357,VALID,0.647266,
2010-01-30, 02:41:05,VALID,1003.52,VALID,0,VALID,93.5148,VALID,0,VALID,23.6452,VALID,357,VALID,0.504297,
2010-01-30, 02:42:05,VALID,1003.5,VALID,0,VALID,93.6903,VALID,0,VALID,23.6841,VALID,345,VALID,0.630078,
2010-01-30, 02:43:05,VALID,1003.49,VALID,0,VALID,93.8047,VALID,0,VALID,23.6823,VALID,341,VALID,0.167187,
2010-01-30, 02:44:05,VALID,1003.48,VALID,0,VALID,93.8505,VALID,0,VALID,23.723,VALID,341,VALID,0,
2010-01-30, 02:45:05,VALID,1003.49,VALID,0,VALID,93.8581,VALID,0.100563,VALID,23.7212,VALID,323,VALID,0.292188,
2010-01-30, 02:46:05,VALID,1003.5,VALID,0,VALID,93.9268,VALID,0,VALID,23.7407,VALID,318,VALID,0.0121094,
2010-01-30, 02:47:05,VALID,1003.52,VALID,0,VALID,93.9191,VALID,0,VALID,23.7601,VALID,318,VALID,0.241797,
2010-01-30, 02:48:05,VALID,1003.54,VALID,0,VALID,93.942,VALID,0,VALID,23.8203,VALID,295,VALID,0.88125,
2010-01-30, 02:49:05,VALID,1003.57,VALID,0,VALID,93.9497,VALID,0,VALID,23.8593,VALID,294,VALID,0.125,
2010-01-30, 02:50:05,VALID,1003.6,VALID,0,VALID,93.8886,VALID,0,VALID,23.8575,VALID,285,VALID,0.776172,
2010-01-30, 02:51:05,VALID,1003.58,VALID,0,VALID,93.8047,VALID,0,VALID,23.8982,VALID,275,VALID,0.516016,
2010-01-30, 02:52:05,VALID,1003.62,VALID,0,VALID,93.6903,VALID,0,VALID,23.9159,VALID,300,VALID,0.245312,
2010-01-30, 02:53:05,VALID,1003.59,VALID,0,VALID,93.5758,VALID,0,VALID,23.9566,VALID,300,VALID,0.151172,
2010-01-30, 02:54:05,VALID,1003.57,VALID,0,VALID,93.4004,VALID,0,VALID,23.9177,VALID,300,VALID,0,
2010-01-30, 02:55:05,VALID,1003.56,VALID,0,VALID,93.0647,VALID,0,VALID,23.8593,VALID,311,VALID,0,
2010-01-30, 02:56:05,VALID,1003.55,VALID,0,VALID,92.8511,VALID,0,VALID,23.8009,VALID,357,VALID,0,
2010-01-30, 02:57:05,VALID,1003.55,VALID,0,VALID,92.7672,VALID,0,VALID,23.7017,VALID,358,VALID,0,
2010-01-30, 02:58:05,VALID,1003.55,VALID,0,VALID,92.8358,VALID,0,VALID,23.6628,VALID,358,VALID,0,
2010-01-30, 02:59:05,VALID,1003.54,VALID,0,VALID,93.0418,VALID,0,VALID,23.6026,VALID,358,VALID,0,
2010-01-30, 03:00:05,VALID,1003.56,VALID,0,VALID,93.1563,VALID,0,VALID,23.6257,VALID,358,VALID,0,
2010-01-30, 03:01:05,VALID,1003.53,VALID,0,VALID,93.2249,VALID,0,VALID,23.546,VALID,358,VALID,0,
2010-01-30, 03:02:05,VALID,1003.53,VALID,0,VALID,93.3088,VALID,0,VALID,23.5284,VALID,358,VALID,0,
2010-01-30, 03:03:05,VALID,1003.56,VALID,0,VALID,93.408,VALID,0,VALID,23.4894,VALID,358,VALID,0,
2010-01-30, 03:04:05,VALID,1003.54,VALID,0,VALID,93.5301,VALID,0,VALID,23.47,VALID,358,VALID,0,
2010-01-30, 03:05:05,VALID,1003.55,VALID,0,VALID,93.6903,VALID,0,VALID,23.4505,VALID,358,VALID,0,
2010-01-30, 03:06:05,VALID,1003.56,VALID,0,VALID,93.8352,VALID,0,VALID,23.47,VALID,358,VALID,0,
2010-01-30, 03:07:05,VALID,1003.53,VALID,0,VALID,93.9191,VALID,0,VALID,23.4311,VALID,358,VALID,0,
2010-01-30, 03:08:05,VALID,1003.54,VALID,0,VALID,94.0183,VALID,0,VALID,23.4505,VALID,358,VALID,0,
2010-01-30, 03:09:05,VALID,1003.52,VALID,0,VALID,94.1556,VALID,0,VALID,23.47,VALID,358,VALID,0,
2010-01-30, 03:10:05,VALID,1003.56,VALID,0,VALID,94.2243,VALID,0,VALID,23.5284,VALID,358,VALID,0,
2010-01-30, 03:11:05,VALID,1003.52,VALID,0,VALID,94.2701,VALID,0,VALID,23.47,VALID,358,VALID,0,
2010-01-30, 03:12:05,VALID,1003.5,VALID,0,VALID,94.2701,VALID,0,VALID,23.47,VALID,358,VALID,0,
2010-01-30, 03:13:05,VALID,1003.52,VALID,0,VALID,94.2777,VALID,0,VALID,23.4098,VALID,358,VALID,0,
2010-01-30, 03:14:05,VALID,1003.51,VALID,0,VALID,94.2777,VALID,0,VALID,23.3921,VALID,358,VALID,0,
2010-01-30, 03:15:05,VALID,1003.49,VALID,0,VALID,94.2472,VALID,0,VALID,23.332,VALID,358,VALID,0,
2010-01-30, 03:16:05,VALID,1003.53,VALID,0,VALID,94.2396,VALID,0,VALID,23.332,VALID,358,VALID,0,
2010-01-30, 03:17:05,VALID,1003.55,VALID,0,VALID,94.2777,VALID,0,VALID,23.2948,VALID,358,VALID,0,
2010-01-30, 03:18:04,VALID,1003.59,VALID,0,VALID,94.2701,VALID,0,VALID,23.2347,VALID,358,VALID,0,
2010-01-30, 03:19:04,VALID,1003.58,VALID,0,VALID,94.2853,VALID,0,VALID,23.2559,VALID,358,VALID,0,
2010-01-30, 03:20:04,VALID,1003.61,VALID,0,VALID,94.4074,VALID,0,VALID,23.2931,VALID,358,VALID,0,
2010-01-30, 03:21:04,VALID,1003.66,VALID,0,VALID,94.5066,VALID,0,VALID,23.3532,VALID,358,VALID,0,
2010-01-30, 03:22:04,VALID,1003.65,VALID,0,VALID,94.5676,VALID,0,VALID,23.3532,VALID,358,VALID,0,
2010-01-30, 03:23:04,VALID,1003.68,VALID,0,VALID,94.5905,VALID,0,VALID,23.3532,VALID,358,VALID,0,
2010-01-30, 03:24:04,VALID,1003.69,VALID,0,VALID,94.6134,VALID,0,VALID,23.3125,VALID,358,VALID,0,
2010-01-30, 03:25:04,VALID,1003.73,VALID,0,VALID,94.6134,VALID,0,VALID,23.2948,VALID,358,VALID,0,
2010-01-30, 03:26:04,VALID,1003.78,VALID,0,VALID,94.621,VALID,0,VALID,23.2559,VALID,358,VALID,0,
2010-01-30, 03:27:04,VALID,1003.78,VALID,0,VALID,94.6286,VALID,0,VALID,23.2364,VALID,358,VALID,0,
2010-01-30, 03:28:04,VALID,1003.81,VALID,0,VALID,94.6286,VALID,0,VALID,23.1975,VALID,358,VALID,0,
2010-01-30, 03:29:04,VALID,1003.83,VALID,0,VALID,94.6439,VALID,0,VALID,23.1957,VALID,358,VALID,0,
2010-01-30, 03:30:04,VALID,1003.8,VALID,0,VALID,94.6744,VALID,0,VALID,23.1763,VALID,358,VALID,0,
2010-01-30, 03:31:04,VALID,1003.82,VALID,0,VALID,94.6744,VALID,0,VALID,23.1763,VALID,358,VALID,0,
2010-01-30, 03:32:04,VALID,1003.81,VALID,0,VALID,94.6973,VALID,0,VALID,23.1957,VALID,358,VALID,0,
2010-01-30, 03:33:04,VALID,1003.83,VALID,0,VALID,94.7202,VALID,0,VALID,23.1975,VALID,358,VALID,0,
2010-01-30, 03:34:04,VALID,1003.82,VALID,0,VALID,94.7354,VALID,0,VALID,23.217,VALID,358,VALID,0,
2010-01-30, 03:35:04,VALID,1003.84,VALID,0,VALID,94.7583,VALID,0,VALID,23.217,VALID,358,VALID,0,
2010-01-30, 03:36:04,VALID,1003.87,VALID,0,VALID,94.8117,VALID,0,VALID,23.2931,VALID,358,VALID,0,
2010-01-30, 03:37:04,VALID,1003.86,VALID,0,VALID,94.8575,VALID,0,VALID,23.3514,VALID,358,VALID,0,
2010-01-30, 03:38:04,VALID,1003.84,VALID,0,VALID,94.8651,VALID,0,VALID,23.3709,VALID,358,VALID,0,
2010-01-30, 03:39:04,VALID,1003.89,VALID,0,VALID,94.9109,VALID,0,VALID,23.4116,VALID,358,VALID,0,
2010-01-30, 03:40:04,VALID,1003.86,VALID,0,VALID,94.9109,VALID,0,VALID,23.3532,VALID,358,VALID,0,
2010-01-30, 03:41:04,VALID,1003.88,VALID,0,VALID,94.9109,VALID,0,VALID,23.2948,VALID,358,VALID,0,
2010-01-30, 03:42:04,VALID,1003.9,VALID,0,VALID,94.888,VALID,0,VALID,23.2347,VALID,358,VALID,0,
2010-01-30, 03:43:04,VALID,1003.89,VALID,0,VALID,94.8804,VALID,0,VALID,23.1957,VALID,358,VALID,0,
2010-01-30, 03:44:04,VALID,1003.87,VALID,0,VALID,94.8651,VALID,0,VALID,23.1957,VALID,358,VALID,0,
2010-01-30, 03:45:04,VALID,1003.85,VALID,0,VALID,94.8575,VALID,0.100563,VALID,23.2152,VALID,358,VALID,0,
2010-01-30, 03:46:04,VALID,1003.87,VALID,0,VALID,94.8728,VALID,0,VALID,23.194,VALID,358,VALID,0,
2010-01-30, 03:47:04,VALID,1003.91,VALID,0,VALID,94.8804,VALID,0,VALID,23.2152,VALID,358,VALID,0,
2010-01-30, 03:48:04,VALID,1003.93,VALID,0,VALID,94.9109,VALID,0,VALID,23.2736,VALID,358,VALID,0,
2010-01-30, 03:49:04,VALID,1003.96,VALID,0,VALID,94.9338,VALID,0,VALID,23.2541,VALID,358,VALID,0,
2010-01-30, 03:50:04,VALID,1003.95,VALID,0,VALID,94.9414,VALID,0,VALID,23.2931,VALID,358,VALID,0,